Location: Владивосток
(43.1151°N, 131.8856°E)
Time: 18:41:11
(UTC+10:00)

SPROUT - Pass Details

Date: 11 July 2022
Orbit: 588 x 598 km, 97.9° (Epoch: 17 August)

Event Time Altitude Azimuth Distance (km) Brightness Sun altitude
Exits shadow 02:14:33 66° 282° (WNW) 647 ? -23.4°
Drops below altitude 10° 02:18:29 10° 342° (NNW) 1,929 ? -23.2°
Sets 02:20:40 0° 345° (NNW) 2,837 ? -23.1°
